sat.trackr.live / text

‹ back to catalog

STARLINK-11562 [DTC]

NORAD 62918 · 2025-027M

PAYLOAD ACTIVE UNKNOWN

§ Identity

Operator
Country
US
Launch date
2025-02-08
Launch site
AFETR
Launch vehicle
Mass (kg)
RCS (m²)

Purposes: comms

External: N2YO · Heavens-Above · Gunter

§ Orbital elements

Epoch: 2026-05-24T23:39:37.325952Z

Period
91.67 min
Inclination
43.0027°
Eccentricity
0.0001997
Mean motion
15.70876033 rev/d
Perigee alt
355.0 km
Apogee alt
357.7 km
Semi-major
6,734.5 km
B*
1.2450e-3
RAAN
247.5802°
Arg perigee
45.6346°
Mean anomaly
314.4685°
Rev number
7,519

§ Raw data

STARLINK-11562 [DTC]1 62918U 25027M   26144.98584868  .00162715  00000+0  12450-2 0  99902 62918  43.0027 247.5802 0001997  45.6346 314.4685 15.70876033 75199

JSON: /api/v1/satellites/62918 · /tle

For live sub-satellite position, see the globe view (requires WebGL).

§ Visibility from observer

Set your observer location to see the next 7 days of passes ≥ 10°. The values pass through the URL so the page stays shareable.

No JS? Fill the form by hand. The geolocation button needs JavaScript.